Probability
0 0 0 0 0 0 0 0 0 0 0 0 0 0 0 0 0 0 0 0 0 0 0 0 0 0 0 0 0 0 0 0 0 0 0 0 0 0 0 0 0 0 0
0 0 0 0 0 0 0 0 0 0 0 0 0 0 0 0 0 0 0 0 0 0 0 0 0 0 0 0 0 0 0 0 0 0 0 0 0 0 0 0 0 0 0
0 0 0 0 0 0 0 0 0 0 0 0 0 0 0 0 0 0 0 0 0 0 0 0 0 0 0 0 0 0 0 0 0 0 0 0 0 0 0 0 0 0 0
0 0 0 0 0 0 0 0 0 0 0 0 0 0 0 0 0 0 0 0 0 0 0 0 0 0 0 0 0 0 0 0 0 0 0 0 0 0 0 0 0 0 0
0 0 0 0 0 0 0 0 0 0 0 0 0 0 0 0 0 0 0 0 0 0 0 0 0 0 0 0 0 0 0 0 0 0 0 0 0 0 0 0 0 0 0
0 0 0 0 0 0 0 0 0 0 0 0 0 0 0 0 0 0 0 0 0 0 0 0 0 0 0 0 0 0 0 0 0 0 0 0 0 0 0 0 0 0 0
0 0 0 0 0 0 0 0 0 0 0 0 0 0 0 0 0 0 0 0 0 0 0 0 0 0 0 0 0 0 0 0 0 0 0 0 0 0 0 0 0 0 0
0 0 0 0 0 0 0 0 0 0 0 0 0 0 0 0 0 0 0 0 0 0 0 0 0 0 0 0 0 0 0 0 0 0 0 0 0 0 0 0 0 0 0
0 0 0 0 0 0 0 0 0 0 0 0 0 0 0 0 0 0 0 0 0 0 0 0 0 0 0 0 0 0 0 0 0 0 0 0 0 0 0 0 0 0 0
0 0 0 0 0 0 0 0 0 0 0 0 0 0 0 0 0 0 0 0 0 0 0 0 0 0 0 0 0 0 0 0 0 0 0 0 0 0 0 0 0 0 0
0 0 0 0 0 0 0 0 0 0 0 0 0 0 0 0 0 0 0 0 0 0 0 0 0 0 0 0 0 0 0 0 0 0 0 0 0 0 0 0 0 0 0
0 0 0 0 0 0 0 0 0 0 0 0 0 0 0 0 0 0 0 0 0 0 0 0 0 0 0 0 0 0 0 0 0 0 0 0 0 0 0 0 0 0 0
0 0 0 0 0 0 0 0 0 0 0 0 0 0 0 0 0 0 0 0 0 0 0 0 0 0 0 0 0 0 0 0 0 0 0 0 0 0 0 0 0 0 0
0 0 0 0 0 0 0 0 0 0 0 0 0 0 0 0 0 0 0 0 0 0 0 0 0 0 0 0 0 0 0 0 0 0 0 0 0 0 0 0 0 0 0
0 0 0 0 0 0 0 0 0 0 0 0 0 0 0 0 0 0 0 0 0 0 0 0 0 0 0 0 0 0 0 0 0 0 0 0 0 0 0 0 0 0 0
0 0 0 0 0 0 0 0 0 0 0 0 0 0 0 0 0 0 0 0 0 0 0 0 0 0 0 0 0 0 0 0 0 0 0 0 0 0 0 0 0 0 0
0 0 0 0 0 0 0 0 0 0 0 0 0 0 0 0 0 0 0 0 0 0 0 0 0 0 0 0 0 0 0 0 0 0 0 0 0 0 0 0 0 0 0
0 0 0 0 0 0 0 0 0 0 0 0 0 0 0 0 0 0 0 0 0 0 0 0 0 0 0 0 0 0 0 0 0 0 0 0 0 0 0 0 0 0 0
0 0 0 0 0 0 0 0 0 0 0 0 0 0 0 0 0 0 0 0 0 0 0 0 0 0 0 0 0 0 0 0 0 0 0 0 0 0 0 0 0 0 0
0 0 0 0 0 0 0 0 0 0 0 0 0 0 0 0 0 0 0 0 0 0 0 0 0 0 0 0 0 0 0 0 0 0 0 0 0 0 0 0 0 0 0
0 0 0 0 0 0 0 0 0 0 0 0 0 0 0 0 0 0 0 0 0 0 0 0 0 0 0 0 0 0 0 0 0 0 0 0 0 0 0 0 0 0 0
0 0 0 0 0 0 0 0 0 0 0 0 0 0 0 0 0 0 0 0 0 0 0 0 0 0 0 0 0 0 0 0 0 0 0 0 0 0 0 0 0 0 0
0 0 0 0 0 0 0 0 0 0 0 0 0 0 0 0 0 0 0 0 0 0 0 0 0 0 0 0 0 0 0 0 0 0 0 0 0 0 0 0 0 0 0
0 0 0 0 0 0 0 0 0 0 0 0 0 0 0 0 0 0 0 0 0 0 0 0 0 0 0 0 0 0 0 0 0 0 0 0 0 0 0 0 0 0 0
0 0 0 0 0 0 0 0 0 0 0 0 0 0 0 0 0 0 0 0 0 0 0 0 0 0 0 0 0 0 0 0 0 0 0 0 0 0 0 0 0 0 0
0 0 0 0 0 0 0 0 0 0 0 0 0 0 0 0 0 0 0 0 0 0 0 0 0 0 0 0 0 0 0 0 0 0 0 0 0 0 0 0 0 0 0
Height
5594 5597 5600 5603 5607 5612 5617 5623 5629 5635 5640 5646 5652 5657 5663 5668 5672 5677 5681 5685 5689 5694 5698 5701 5705 5709 5711 5715 5718 5721 5725 5729 5732 5736 5737 5739 5742 5745 5746 5748 5749 5750 5750
5583 5586 5588 5591 5595 5600 5605 5610 5616 5622 5628 5634 5639 5645 5650 5655 5660 5664 5669 5673 5678 5682 5686 5690 5693 5697 5700 5704 5707 5711 5714 5717 5721 5724 5727 5729 5731 5734 5735 5737 5738 5739 5740
5573 5575 5578 5581 5585 5589 5593 5598 5603 5609 5616 5621 5627 5633 5638 5643 5647 5652 5656 5661 5665 5670 5674 5678 5682 5685 5688 5692 5696 5699 5702 5706 5709 5713 5715 5718 5720 5722 5724 5725 5727 5728 5728
5563 5565 5568 5571 5574 5578 5582 5586 5592 5597 5603 5609 5615 5620 5625 5629 5634 5639 5643 5648 5652 5657 5661 5665 5669 5673 5676 5680 5683 5687 5691 5694 5698 5701 5703 5705 5708 5710 5712 5714 5715 5716 5717
5553 5555 5558 5561 5564 5568 5571 5576 5581 5586 5591 5596 5602 5607 5611 5616 5621 5625 5630 5634 5639 5643 5647 5651 5655 5659 5663 5667 5671 5675 5678 5682 5685 5688 5691 5693 5696 5698 5700 5702 5703 5704 5705
5544 5546 5548 5551 5554 5558 5562 5566 5571 5575 5579 5584 5589 5593 5598 5602 5607 5611 5616 5620 5625 5629 5634 5638 5642 5646 5650 5654 5658 5662 5666 5669 5673 5676 5679 5681 5684 5686 5688 5690 5691 5692 5694
5535 5537 5539 5542 5546 5549 5553 5556 5560 5564 5567 5572 5576 5579 5583 5588 5592 5597 5601 5606 5611 5616 5620 5624 5628 5632 5636 5640 5644 5649 5652 5656 5659 5663 5666 5669 5672 5674 5676 5677 5678 5678 5680
5525 5527 5530 5533 5537 5539 5543 5546 5549 5552 5556 5559 5562 5565 5570 5574 5578 5582 5587 5591 5597 5602 5606 5610 5614 5618 5622 5626 5631 5635 5639 5642 5646 5650 5654 5656 5658 5660 5662 5663 5664 5665 5666
5516 5518 5521 5524 5527 5530 5532 5535 5538 5541 5544 5547 5550 5553 5556 5560 5564 5568 5572 5577 5582 5588 5592 5597 5601 5605 5609 5613 5617 5622 5626 5629 5632 5636 5640 5642 5644 5646 5648 5649 5650 5650 5652
5507 5509 5512 5514 5517 5520 5523 5525 5528 5531 5533 5536 5539 5542 5544 5548 5551 5555 5559 5564 5569 5575 5579 5583 5588 5592 5595 5598 5603 5608 5612 5615 5619 5622 5625 5628 5630 5632 5633 5634 5635 5636 5637
5499 5501 5503 5505 5508 5511 5514 5516 5518 5521 5523 5526 5529 5531 5534 5537 5540 5544 5547 5552 5556 5561 5566 5570 5574 5578 5582 5585 5590 5595 5599 5602 5605 5608 5611 5614 5616 5618 5619 5620 5621 5621 5622
5491 5493 5495 5497 5500 5502 5505 5507 5509 5511 5514 5516 5518 5521 5523 5526 5529 5532 5536 5540 5544 5549 5554 5558 5562 5565 5568 5572 5576 5581 5584 5587 5590 5594 5597 5600 5602 5604 5605 5606 5607 5607 5607
5483 5485 5487 5489 5491 5493 5496 5498 5500 5502 5504 5506 5508 5511 5513 5516 5518 5521 5525 5528 5532 5537 5541 5545 5549 5552 5555 5559 5563 5567 5570 5573 5576 5580 5583 5586 5588 5590 5591 5591 5592 5592 5592
5474 5476 5479 5481 5483 5485 5487 5489 5491 5493 5495 5497 5499 5501 5503 5506 5509 5511 5514 5517 5521 5525 5529 5533 5536 5539 5543 5547 5550 5553 5556 5559 5562 5566 5569 5571 5573 5575 5576 5576 5577 5577 5578
5466 5468 5470 5472 5474 5476 5478 5480 5482 5484 5486 5488 5490 5491 5494 5497 5499 5502 5504 5507 5510 5514 5517 5521 5524 5527 5531 5534 5537 5540 5543 5545 5548 5552 5554 5557 5559 5560 5561 5562 5562 5563 5563
5459 5460 5462 5464 5466 5468 5470 5472 5473 5475 5477 5479 5480 5482 5484 5487 5489 5492 5494 5497 5499 5503 5506 5509 5512 5515 5518 5522 5524 5527 5529 5532 5535 5537 5540 5542 5544 5545 5547 5547 5548 5548 5549
5451 5452 5454 5456 5457 5459 5461 5463 5465 5467 5468 5470 5472 5473 5475 5477 5480 5482 5484 5486 5489 5491 5494 5497 5500 5503 5506 5509 5511 5514 5516 5518 5521 5523 5525 5528 5529 5531 5532 5533 5533 5534 5534
5443 5445 5446 5447 5449 5451 5452 5454 5456 5458 5460 5461 5463 5465 5466 5468 5470 5472 5474 5476 5479 5481 5483 5486 5489 5492 5494 5496 5499 5501 5503 5505 5507 5509 5511 5513 5515 5516 5518 5518 5519 5519 5520
5436 5437 5438 5440 5441 5442 5444 5445 5447 5449 5451 5452 5454 5456 5457 5459 5461 5463 5464 5466 5468 5470 5472 5475 5477 5480 5482 5484 5486 5488 5490 5492 5494 5496 5498 5500 5501 5502 5503 5504 5505 5505 5505
5428 5429 5430 5431 5432 5434 5435 5436 5438 5439 5441 5443 5445 5446 5448 5450 5452 5453 5455 5456 5458 5460 5462 5464 5466 5468 5470 5472 5474 5476 5478 5479 5481 5483 5485 5486 5487 5489 5489 5490 5490 5491 5491
5419 5420 5421 5422 5423 5425 5426 5427 5429 5430 5432 5434 5436 5437 5439 5441 5442 5444 5445 5446 5448 5450 5452 5453 5455 5457 5459 5461 5462 5464 5466 5467 5469 5471 5472 5473 5474 5475 5476 5477 5477 5477 5477
5411 5412 5413 5413 5414 5416 5417 5418 5420 5421 5423 5425 5426 5428 5430 5431 5433 5434 5435 5436 5438 5439 5441 5443 5444 5446 5447 5449 5450 5452 5454 5455 5457 5458 5460 5461 5462 5463 5464 5464 5464 5464 5464
5402 5403 5404 5405 5405 5406 5408 5409 5411 5413 5414 5415 5417 5418 5420 5421 5422 5424 5425 5426 5428 5429 5430 5432 5433 5435 5436 5437 5439 5440 5442 5444 5445 5446 5448 5449 5450 5451 5451 5451 5451 5451 5451
5393 5394 5395 5396 5397 5398 5399 5400 5402 5403 5405 5406 5407 5409 5410 5411 5412 5413 5415 5416 5417 5418 5419 5421 5422 5424 5425 5427 5428 5429 5430 5432 5433 5434 5435 5436 5437 5438 5438 5438 5438 5438 5438
5385 5386 5387 5387 5388 5389 5390 5391 5392 5394 5395 5397 5398 5399 5400 5401 5402 5403 5404 5405 5406 5408 5409 5410 5411 5413 5414 5415 5416 5417 5419 5420 5421 5422 5423 5424 5425 5425 5426 5426 5426 5426 5425
5377 5378 5378 5379 5380 5381 5381 5382 5383 5384 5385 5386 5388 5389 5390 5391 5392 5393 5394 5395 5396 5397 5398 5399 5400 5401 5403 5404 5405 5406 5407 5408 5409 5410 5411 5412 5413 5413 5413 5413 5413 5413 5413
Wind_Speed
42 43 45 45 47 49 51 52 52 51 51 52 52 52 51 51 50 49 49 48 47 48 48 47 46 46 45 45 45 44 44 43 42 41 42 41 42 42 42 41 41 42 41
40 42 42 44 45 47 49 51 52 52 52 51 51 52 52 51 51 50 49 49 49 49 48 48 47 48 48 47 46 46 45 45 44 43 43 43 43 43 43 43 43 43 43
39 40 41 43 44 46 48 49 50 52 52 52 52 52 52 52 51 51 50 51 51 51 50 50 50 49 49 49 48 48 46 45 44 43 44 43 43 45 45 44 44 44 43
39 40 41 42 44 45 46 48 49 50 51 51 51 52 52 53 53 51 51 51 52 51 51 52 51 51 51 51 51 50 49 48 46 45 46 45 45 46 46 46 45 45 45
39 39 41 41 43 44 44 45 46 48 49 51 52 52 52 53 54 53 53 53 53 53 53 53 52 52 53 53 52 51 50 50 49 48 48 46 46 46 47 46 46 46 46
37 38 40 41 42 43 43 43 44 46 48 49 50 52 53 54 54 54 54 54 54 53 53 54 54 53 53 54 54 52 51 50 50 50 49 48 46 46 47 47 46 46 46
38 38 39 39 40 42 42 43 44 45 47 48 48 50 51 53 54 54 53 54 54 54 54 54 54 54 54 54 55 53 52 51 50 50 50 48 47 46 46 47 47 47 47
37 37 38 39 40 40 40 41 43 44 44 45 46 47 49 51 53 54 53 54 54 54 54 54 54 54 54 55 56 55 53 52 52 52 51 50 49 48 49 49 49 49 49
36 36 37 38 39 40 40 41 42 42 42 43 43 44 45 46 49 51 52 53 53 52 53 53 54 54 54 55 56 55 54 53 53 53 53 53 52 51 52 51 51 51 50
33 34 35 36 38 38 39 41 42 42 43 42 41 42 43 45 47 48 50 51 51 51 52 52 53 53 53 55 55 55 54 53 53 52 52 53 54 53 53 52 52 53 53
32 33 34 35 36 37 38 39 39 40 41 42 41 40 41 42 44 46 47 49 50 50 50 51 51 51 52 54 54 53 53 53 53 53 53 53 53 53 53 53 53 53 53
32 33 34 34 35 36 37 37 38 38 39 41 42 41 41 42 44 45 45 46 46 47 48 48 48 49 50 52 52 51 52 53 53 53 53 53 53 52 52 52 53 53 53
31 32 32 32 33 35 36 36 37 36 36 37 38 39 40 40 41 42 43 44 44 45 46 46 46 47 48 49 50 50 51 52 53 53 53 53 53 52 52 52 52 53 53
29 30 30 30 30 32 33 34 34 35 35 36 36 37 38 38 38 38 41 42 43 44 44 44 45 46 47 48 49 49 50 51 52 52 52 52 52 51 52 52 52 53 53
28 29 30 31 31 31 32 33 34 34 34 34 34 35 36 36 36 37 38 39 42 44 44 44 45 45 46 47 47 48 49 49 50 51 51 52 52 52 52 52 53 53 53
26 27 28 30 32 32 32 33 34 34 34 34 34 34 35 35 36 37 38 38 40 41 42 42 43 44 45 46 47 48 49 49 50 50 50 51 51 51 51 52 51 51 51
25 25 27 28 30 31 32 33 34 34 34 33 33 33 34 34 35 36 37 38 39 40 41 41 42 43 44 44 45 46 47 48 49 49 50 50 49 50 50 50 50 50 50
24 25 26 27 28 30 31 32 33 34 33 33 33 33 33 34 35 35 36 36 38 39 40 41 42 43 44 44 44 44 45 46 47 47 47 48 48 48 48 48 48 49 50
26 25 26 26 27 28 30 31 32 32 33 33 34 34 34 34 34 35 35 36 36 37 39 40 41 42 43 43 43 43 44 44 45 46 46 46 46 47 47 47 47 48 49
27 27 27 27 28 29 29 30 30 31 33 33 33 34 34 34 34 34 34 34 35 36 37 38 40 41 41 41 42 42 42 43 43 43 44 45 45 46 46 46 46 47 47
27 27 27 27 28 29 29 29 30 31 32 33 33 33 34 34 34 34 34 34 35 35 36 37 38 38 39 40 40 40 40 40 41 41 42 43 44 43 43 43 44 44 44
28 28 28 28 29 29 29 30 30 31 31 32 33 34 34 34 35 35 35 35 35 36 37 38 38 38 39 38 38 38 39 39 39 39 40 40 41 41 42 42 43 43 44
27 27 28 29 29 29 29 30 30 30 31 31 32 33 34 35 36 36 36 36 36 36 36 36 36 37 37 37 37 37 37 37 38 38 38 39 40 41 42 42 43 43 43
26 26 27 28 28 29 29 30 30 31 31 31 32 32 33 33 34 35 35 35 35 36 36 36 36 36 37 37 37 37 37 38 38 38 38 39 39 40 40 41 41 41 41
25 25 26 27 27 28 29 29 30 31 31 31 32 32 32 33 33 34 35 34 34 35 35 36 36 36 36 36 37 37 37 38 38 38 38 39 39 40 40 40 40 40 40
25 25 26 26 27 27 28 29 30 30 31 31 32 32 32 33 33 33 33 33 33 33 34 34 35 35 35 36 37 37 37 37 38 38 39 39 39 39 39 39 40 39 39
Wind_Direction
249 248 247 244 242 241 240 239 240 240 239 239 239 240 241 243 245 246 246 245 246 247 248 249 250 251 251 251 250 250 252 253 254 254 256 255 256 258 260 262 262 264 266
251 249 247 244 242 242 241 241 241 240 240 240 240 241 241 243 245 245 245 245 245 247 248 249 250 251 251 250 250 251 253 255 255 255 257 256 257 259 261 262 264 265 266
252 250 248 245 243 242 243 242 241 241 240 241 241 241 242 244 245 246 246 246 246 247 248 249 250 251 251 250 250 251 253 255 255 256 257 257 259 260 261 263 265 266 266
252 250 248 246 244 243 243 243 242 241 240 241 241 242 243 245 246 247 246 246 247 246 247 249 250 250 251 251 251 252 253 255 255 256 258 258 259 261 263 264 266 266 267
253 250 249 247 245 243 243 242 242 242 242 243 242 243 244 245 246 247 248 247 247 247 247 248 250 250 250 251 251 252 254 254 255 256 258 259 259 260 262 264 266 267 268
252 250 249 248 246 243 242 242 243 243 243 244 244 245 246 246 246 247 247 248 247 247 247 248 249 250 250 250 250 251 253 254 254 256 258 259 260 262 262 263 265 268 269
251 249 248 246 245 244 244 244 245 245 244 244 245 245 245 245 245 246 246 247 247 247 247 248 249 250 250 249 249 250 252 254 255 256 258 259 261 262 263 264 266 268 269
253 251 249 248 247 246 246 245 246 245 246 246 245 245 245 245 246 247 246 246 246 246 247 248 249 250 250 250 250 250 252 254 255 256 258 260 261 263 264 265 266 269 270
255 253 250 249 248 247 247 245 245 247 248 248 247 247 246 245 245 245 244 244 244 245 247 248 250 251 251 251 251 252 253 254 255 256 258 259 261 263 265 266 267 268 269
253 253 251 251 249 249 249 247 248 250 249 249 248 247 247 246 245 245 245 245 245 247 248 249 250 251 251 251 251 252 253 254 255 256 258 259 261 262 264 266 268 269 270
252 251 250 250 250 250 249 247 247 248 248 248 248 248 247 248 247 246 245 246 247 248 248 250 251 251 251 251 252 253 254 255 257 257 257 258 260 263 264 266 267 269 270
252 250 249 249 249 251 252 250 249 248 248 249 250 250 248 249 249 247 248 248 247 248 248 249 249 250 251 252 252 253 255 256 257 257 257 259 261 263 265 266 267 268 269
251 250 250 250 251 251 252 251 250 248 247 249 249 249 248 249 249 247 246 246 247 248 248 250 251 251 251 251 252 253 255 256 256 256 257 259 262 263 264 266 266 267 269
252 251 249 249 251 252 251 251 250 250 250 251 250 250 248 246 246 246 247 247 248 249 250 252 252 252 252 252 253 254 256 256 257 257 258 260 262 263 264 265 266 268 269
253 252 249 249 250 251 251 251 252 253 253 253 252 251 248 248 249 249 251 251 251 251 252 252 253 253 253 253 254 255 256 257 258 258 259 261 262 264 265 266 267 268 270
253 252 251 251 251 252 252 252 252 253 253 254 253 253 251 252 254 254 255 256 254 253 254 254 254 253 254 254 256 256 256 257 258 259 260 262 263 264 266 267 267 268 270
253 253 253 254 253 252 252 253 252 252 254 254 254 254 254 254 255 256 258 257 254 254 253 253 253 252 253 254 255 256 257 257 258 260 261 262 264 265 266 267 267 268 270
256 255 256 256 257 255 254 255 254 253 253 253 254 255 256 257 257 258 258 255 254 254 254 253 252 252 253 255 256 257 257 258 259 260 261 262 263 265 266 267 268 269 270
259 259 258 258 257 257 257 257 256 253 252 253 254 255 257 258 258 258 258 257 256 255 255 254 253 254 255 257 257 258 258 258 259 260 261 262 263 265 267 268 269 270 271
260 260 259 259 258 257 258 257 257 255 253 253 255 255 256 257 257 258 258 258 256 255 256 255 255 256 257 258 258 258 258 258 258 260 261 262 264 266 267 268 269 270 272
260 260 259 259 259 258 258 257 258 257 255 253 254 255 255 256 257 257 258 257 256 256 256 256 256 257 258 258 258 257 257 257 259 260 262 263 265 266 266 267 268 270 272
260 260 260 260 259 259 257 257 258 258 257 256 255 255 256 256 256 257 258 259 260 259 259 258 258 258 259 258 257 257 257 258 259 260 262 263 264 265 267 268 269 270 272
262 261 262 261 260 258 257 256 257 258 257 257 257 256 256 256 257 258 259 260 260 261 260 259 258 258 258 257 256 257 258 259 260 261 262 263 264 265 267 268 269 270 272
262 262 262 262 260 258 256 256 256 256 257 257 258 257 257 257 258 259 260 260 260 260 260 259 258 258 258 258 258 259 260 260 260 261 262 262 264 265 267 268 270 271 272
265 264 264 264 262 260 258 257 257 257 257 258 258 258 257 257 258 259 260 260 260 259 259 259 258 258 259 261 260 260 261 261 261 261 262 262 264 265 267 268 270 272 273
265 265 264 264 263 262 261 259 259 259 260 260 259 258 258 258 259 260 260 259 258 258 258 259 259 260 261 261 261 261 262 262 261 261 262 263 265 267 268 269 270 271 273